START_TIME,STEP,MOV.,M35,t_acc.,PL05,t_acc.,PL06,t_acc.,PL07,t_acc.
1979-08-07 18:00:22.380 ,0,1,0.,4.8,5.,4.8,1.,4.8,0.,4.8
1979-08-07 18:00:27.180 ,0,1,0.,4.8,5.,4.8,0.,4.8,0.,4.8
1979-08-07 18:00:31.980 ,0,1,0.,4.8,2.,4.8,0.,4.8,0.,4.8
1979-08-07 18:00:36.780 ,0,1,0.,4.8,5.,4.8,1.,4.8,1.,4.8
1979-08-07 18:00:41.580 ,0,1,0.,4.8,4.,4.8,1.,4.8,0.,4.8
1979-08-07 18:00:46.380 ,4,1,0.,4.8,0.,4.8,0.,4.8,1.,4.8
1979-08-07 18:00:51.180 ,4,1,0.,4.8,6.,4.8,2.,4.8,0.,4.8
1979-08-07 18:00:55.980 ,4,1,0.,4.8,1.,4.8,1.,4.8,0.,4.8
1979-08-07 18:01:00.780 ,4,1,0.,4.8,1.,4.8,2.,4.8,1.,4.8
1979-08-07 18:01:05.580 ,4,1,0.,4.8,0.,4.8,4.,4.8,1.,4.8
1979-08-07 18:01:10.380 ,7,1,0.,4.8,1.,4.8,0.,4.8,0.,4.8
1979-08-07 18:01:15.180 ,7,1,0.,4.8,2.,4.8,0.,4.8,0.,4.8
1979-08-07 18:01:19.980 ,7,1,0.,4.8,1.,4.8,1.,4.8,1.,4.8
1979-08-07 18:01:24.780 ,7,1,0.,4.8,1.,4.8,0.,4.8,0.,4.8
1979-08-07 18:01:29.580 ,7,1,0.,4.8,2.,4.8,0.,4.8,0.,4.8
1979-08-07 18:01:34.380 ,3,1,0.,4.8,4.,4.8,0.,4.8,0.,4.8
1979-08-07 18:01:39.180 ,3,1,0.,4.8,1.,4.8,0.,4.8,1.,4.8
1979-08-07 18:01:43.980 ,3,1,0.,4.8,1.,4.8,0.,4.8,0.,4.8
1979-08-07 18:01:48.780 ,3,1,0.,4.8,2.,4.8,0.,4.8,0.,4.8
1979-08-07 18:01:53.580 ,3,1,0.,4.8,2.,4.8,1.,4.8,0.,4.8
1979-08-07 18:01:58.380 ,0,1,0.,4.8,5.,4.8,4.,4.8,0.,4.8
1979-08-07 18:02:03.180 ,0,1,0.,4.8,4.,4.8,2.,4.8,1.,4.8
1979-08-07 18:02:07.980 ,0,1,0.,4.8,1.,4.8,0.,4.8,2.,4.8
1979-08-07 18:02:12.780 ,0,1,0.,4.8,3.,4.8,2.,4.8,0.,4.8
1979-08-07 18:02:17.580 ,0,1,0.,4.8,5.,4.8,1.,4.8,0.,4.8
1979-08-07 18:02:22.380 ,4,1,0.,4.8,3.,4.8,2.,4.8,0.,4.8
1979-08-07 18:02:27.180 ,4,1,0.,4.8,5.,4.8,1.,4.8,1.,4.8
1979-08-07 18:02:31.980 ,4,1,0.,4.8,4.,4.8,1.,4.8,0.,4.8
1979-08-07 18:02:36.780 ,4,1,0.,4.8,3.,4.8,4.,4.8,0.,4.8
1979-08-07 18:02:41.580 ,4,1,0.,4.8,1.,4.8,1.,4.8,0.,4.8
1979-08-07 18:02:46.380 ,7,1,0.,4.8,3.,4.8,2.,4.8,0.,4.8
1979-08-07 18:02:51.180 ,7,1,0.,4.8,1.,4.8,0.,4.8,2.,4.8
1979-08-07 18:02:55.980 ,7,1,0.,4.8,4.,4.8,1.,4.8,0.,4.8
1979-08-07 18:03:00.780 ,7,1,0.,4.8,0.,4.8,0.,4.8,0.,4.8
1979-08-07 18:03:05.580 ,7,1,0.,4.8,0.,4.8,0.,4.8,0.,4.8
1979-08-07 18:03:10.380 ,3,1,0.,4.8,0.,4.8,0.,4.8,0.,4.8
1979-08-07 18:03:15.180 ,3,1,0.,4.8,4.,4.8,0.,4.8,0.,4.8
1979-08-07 18:03:19.980 ,3,1,0.,4.8,2.,4.8,0.,4.8,0.,4.8
1979-08-07 18:03:24.780 ,3,1,0.,4.8,3.,4.8,3.,4.8,0.,4.8
1979-08-07 18:03:29.580 ,3,1,0.,4.8,5.,4.8,1.,4.8,0.,4.8
1979-08-07 18:03:34.380 ,0,1,0.,4.8,0.,4.8,0.,4.8,1.,4.8
1979-08-07 18:03:39.180 ,0,1,0.,4.8,3.,4.8,0.,4.8,1.,4.8
1979-08-07 18:03:43.980 ,0,1,0.,4.8,3.,4.8,0.,4.8,1.,4.8
1979-08-07 18:03:48.780 ,0,1,0.,4.8,3.,4.8,1.,4.8,1.,4.8
1979-08-07 18:03:53.580 ,0,1,0.,4.8,0.,4.8,0.,4.8,0.,4.8
1979-08-07 18:03:58.370 ,4,1,0.,4.8,2.,4.8,0.,4.8,0.,4.8
1979-08-07 18:04:03.170 ,4,1,0.,4.8,7.,4.8,0.,4.8,0.,4.8
1979-08-07 18:04:07.970 ,4,1,0.,4.8,4.,4.8,2.,4.8,0.,4.8
1979-08-07 18:04:12.770 ,4,1,0.,4.8,6.,4.8,1.,4.8,1.,4.8
1979-08-07 18:04:17.570 ,4,1,0.,4.8,2.,4.8,0.,4.8,1.,4.8
1979-08-07 18:04:22.370 ,7,1,0.,4.8,0.,4.8,1.,4.8,1.,4.8
1979-08-07 18:04:27.170 ,7,1,0.,4.8,0.,4.8,0.,4.8,0.,4.8
1979-08-07 18:04:31.970 ,7,1,0.,4.8,3.,4.8,0.,4.8,1.,4.8
1979-08-07 18:04:36.770 ,7,1,0.,4.8,0.,4.8,0.,4.8,2.,4.8
1979-08-07 18:04:41.570 ,7,1,0.,4.8,0.,4.8,0.,4.8,0.,4.8
1979-08-07 18:04:46.370 ,3,1,0.,4.8,1.,4.8,0.,4.8,0.,4.8
1979-08-07 18:04:51.170 ,3,1,0.,4.8,2.,4.8,0.,4.8,0.,4.8
1979-08-07 18:04:55.970 ,3,1,0.,4.8,1.,4.8,1.,4.8,0.,4.8
1979-08-07 18:05:00.770 ,3,1,0.,4.8,2.,4.8,0.,4.8,0.,4.8
1979-08-07 18:05:05.570 ,3,1,0.,4.8,4.,4.8,1.,4.8,0.,4.8
1979-08-07 18:05:10.370 ,0,1,0.,4.8,3.,4.8,1.,4.8,0.,4.8
1979-08-07 18:05:15.170 ,0,1,0.,4.8,6.,4.8,4.,4.8,0.,4.8
1979-08-07 18:05:19.970 ,0,1,0.,4.8,1.,4.8,1.,4.8,0.,4.8
1979-08-07 18:05:24.770 ,0,1,0.,4.8,4.,4.8,2.,4.8,1.,4.8
1979-08-07 18:05:29.570 ,0,1,0.,4.8,5.,4.8,1.,4.8,0.,4.8
1979-08-07 18:05:34.370 ,0,0,0.,4.8,0.,4.8,1.,4.8,0.,4.8
1979-08-07 18:05:39.170 ,0,0,0.,4.8,3.,4.8,1.,4.8,0.,4.8
1979-08-07 18:05:43.970 ,0,0,0.,4.8,2.,4.8,1.,4.8,0.,4.8
1979-08-07 18:05:48.770 ,0,0,0.,4.8,3.,4.8,1.,4.8,1.,4.8
1979-08-07 18:05:53.570 ,0,0,0.,4.8,3.,4.8,3.,4.8,1.,4.8
1979-08-07 18:05:58.370 ,0,0,0.,4.8,2.,4.8,1.,4.8,0.,4.8
1979-08-07 18:06:03.170 ,0,0,0.,4.8,3.,4.8,1.,4.8,0.,4.8
1979-08-07 18:06:07.970 ,0,0,0.,4.8,2.,4.8,0.,4.8,0.,4.8
1979-08-07 18:06:12.770 ,0,0,0.,4.8,0.,4.8,1.,4.8,0.,4.8
1979-08-07 18:06:17.570 ,0,0,0.,4.8,0.,4.8,0.,4.8,0.,4.8
1979-08-07 18:06:22.370 ,5,0,0.,4.8,1.,4.8,0.,4.8,0.,4.8
1979-08-07 18:06:27.170 ,5,0,0.,4.8,2.,4.8,3.,4.8,1.,4.8
1979-08-07 18:06:31.970 ,5,0,0.,4.8,3.,4.8,2.,4.8,0.,4.8
1979-08-07 18:06:36.770 ,5,0,0.,4.8,1.,4.8,0.,4.8,0.,4.8
1979-08-07 18:06:41.570 ,5,0,0.,4.8,1.,4.8,1.,4.8,1.,4.8
1979-08-07 18:06:46.370 ,5,0,0.,4.8,1.,4.8,0.,4.8,0.,4.8
1979-08-07 18:06:51.170 ,5,0,0.,4.8,2.,4.8,0.,4.8,1.,4.8
1979-08-07 18:06:55.970 ,5,0,0.,4.8,2.,4.8,2.,4.8,0.,4.8
1979-08-07 18:07:00.770 ,5,0,0.,4.8,0.,4.8,0.,4.8,0.,4.8
1979-08-07 18:07:05.570 ,5,0,0.,4.8,0.,4.8,0.,4.8,0.,4.8
1979-08-07 18:07:10.370 ,4,0,0.,4.8,0.,4.8,1.,4.8,1.,4.8
1979-08-07 18:07:15.170 ,4,0,0.,4.8,3.,4.8,0.,4.8,0.,4.8
1979-08-07 18:07:19.970 ,4,0,0.,4.8,2.,4.8,0.,4.8,0.,4.8
1979-08-07 18:07:24.770 ,4,0,0.,4.8,0.,4.8,1.,4.8,0.,4.8
1979-08-07 18:07:29.570 ,4,0,0.,4.8,5.,4.8,1.,4.8,1.,4.8
1979-08-07 18:07:34.370 ,4,0,0.,4.8,3.,4.8,0.,4.8,1.,4.8
1979-08-07 18:07:39.170 ,4,0,0.,4.8,1.,4.8,0.,4.8,0.,4.8
1979-08-07 18:07:43.970 ,4,0,0.,4.8,0.,4.8,0.,4.8,0.,4.8
1979-08-07 18:07:48.770 ,4,0,0.,4.8,3.,4.8,1.,4.8,0.,4.8
1979-08-07 18:07:53.570 ,4,0,0.,4.8,1.,4.8,0.,4.8,2.,4.8
1979-08-07 18:07:58.370 ,3,0,0.,4.8,2.,4.8,0.,4.8,1.,4.8
1979-08-07 18:08:03.170 ,3,0,0.,4.8,1.,4.8,2.,4.8,1.,4.8
1979-08-07 18:08:07.970 ,3,0,0.,4.8,5.,4.8,2.,4.8,1.,4.8
1979-08-07 18:08:12.770 ,3,0,0.,4.8,2.,4.8,2.,4.8,0.,4.8
1979-08-07 18:08:17.570 ,3,0,0.,4.8,6.,4.8,1.,4.8,0.,4.8
1979-08-07 18:08:22.370 ,3,0,0.,4.8,3.,4.8,2.,4.8,1.,4.8
1979-08-07 18:08:27.170 ,3,0,1.,4.8,5.,4.8,2.,4.8,0.,4.8
1979-08-07 18:08:31.970 ,3,0,0.,4.8,3.,4.8,2.,4.8,1.,4.8
1979-08-07 18:08:36.770 ,3,0,0.,4.8,2.,4.8,1.,4.8,1.,4.8
1979-08-07 18:08:41.570 ,3,0,0.,4.8,2.,4.8,4.,4.8,1.,4.8
1979-08-07 18:08:46.370 ,2,0,0.,4.8,2.,4.8,4.,4.8,1.,4.8
1979-08-07 18:08:51.170 ,2,0,0.,4.8,3.,4.8,5.,4.8,1.,4.8
1979-08-07 18:08:55.970 ,2,0,0.,4.8,2.,4.8,1.,4.8,0.,4.8
1979-08-07 18:09:00.770 ,2,0,0.,4.8,5.,4.8,5.,4.8,0.,4.8
1979-08-07 18:09:05.570 ,2,0,0.,4.8,5.,4.8,2.,4.8,0.,4.8
1979-08-07 18:09:10.370 ,2,0,0.,4.8,5.,4.8,6.,4.8,0.,4.8
1979-08-07 18:09:15.170 ,2,0,0.,4.8,4.,4.8,1.,4.8,0.,4.8
1979-08-07 18:09:19.970 ,2,0,0.,4.8,2.,4.8,0.,4.8,1.,4.8
1979-08-07 18:09:24.770 ,2,0,0.,4.8,2.,4.8,1.,4.8,1.,4.8
1979-08-07 18:09:29.570 ,2,0,0.,4.8,3.,4.8,0.,4.8,0.,4.8
1979-08-07 18:09:34.370 ,1,0,0.,4.8,3.,4.8,3.,4.8,0.,4.8
1979-08-07 18:09:39.170 ,1,0,0.,4.8,12.,4.8,2.,4.8,0.,4.8
1979-08-07 18:09:43.970 ,1,0,0.,4.8,1.,4.8,2.,4.8,0.,4.8
1979-08-07 18:09:48.770 ,1,0,0.,4.8,0.,4.8,0.,4.8,1.,4.8
1979-08-07 18:09:53.570 ,1,0,0.,4.8,3.,4.8,0.,4.8,1.,4.8
1979-08-07 18:09:58.370 ,1,0,0.,4.8,1.,4.8,1.,4.8,3.,4.8
1979-08-07 18:10:03.170 ,1,0,0.,4.8,3.,4.8,2.,4.8,0.,4.8
1979-08-07 18:10:07.970 ,1,0,0.,4.8,4.,4.8,0.,4.8,2.,4.8
1979-08-07 18:10:12.770 ,1,0,0.,4.8,1.,4.8,0.,4.8,1.,4.8
1979-08-07 18:10:17.570 ,1,0,0.,4.8,1.,4.8,0.,4.8,0.,4.8
1979-08-07 18:10:22.370 ,0,0,0.,4.8,2.,4.8,0.,4.8,0.,4.8
1979-08-07 18:10:27.170 ,0,0,0.,4.8,3.,4.8,0.,4.8,0.,4.8
1979-08-07 18:10:31.970 ,0,0,0.,4.8,3.,4.8,0.,4.8,0.,4.8
1979-08-07 18:10:36.770 ,0,0,0.,4.8,1.,4.8,0.,4.8,2.,4.8
1979-08-07 18:10:41.570 ,0,0,0.,4.8,3.,4.8,1.,4.8,0.,4.8
1979-08-07 18:10:46.370 ,0,0,0.,4.8,2.,4.8,3.,4.8,1.,4.8
1979-08-07 18:10:51.170 ,0,0,0.,4.8,3.,4.8,0.,4.8,0.,4.8
1979-08-07 18:10:55.970 ,0,0,0.,4.8,3.,4.8,0.,4.8,0.,4.8
1979-08-07 18:11:00.770 ,0,0,0.,4.8,4.,4.8,1.,4.8,0.,4.8
1979-08-07 18:11:05.570 ,0,0,0.,4.8,3.,4.8,0.,4.8,1.,4.8
1979-08-07 18:11:10.370 ,0,0,0.,4.8,0.,4.8,1.,4.8,0.,4.8
1979-08-07 18:11:15.170 ,0,0,1.,4.8,1.,4.8,1.,4.8,0.,4.8
1979-08-07 18:11:19.970 ,0,0,0.,4.8,0.,4.8,1.,4.8,0.,4.8
1979-08-07 18:11:24.770 ,0,0,0.,4.8,1.,4.8,0.,4.8,1.,4.8
1979-08-07 18:11:29.570 ,0,0,0.,4.8,4.,4.8,4.,4.8,1.,4.8
1979-08-07 18:11:34.370 ,0,0,0.,4.8,2.,4.8,2.,4.8,1.,4.8
1979-08-07 18:11:39.170 ,0,0,0.,4.8,2.,4.8,0.,4.8,0.,4.8
1979-08-07 18:11:43.970 ,0,0,0.,4.8,3.,4.8,0.,4.8,0.,4.8
1979-08-07 18:11:48.770 ,0,0,0.,4.8,5.,4.8,0.,4.8,0.,4.8
1979-08-07 18:11:53.570 ,0,0,0.,4.8,8.,4.8,0.,4.8,1.,4.8
1979-08-07 18:11:58.370 ,1,0,0.,4.8,8.,4.8,1.,4.8,0.,4.8
1979-08-07 18:12:03.170 ,1,0,0.,4.8,3.,4.8,0.,4.8,2.,4.8
1979-08-07 18:12:07.970 ,1,0,0.,4.8,3.,4.8,0.,4.8,0.,4.8
1979-08-07 18:12:12.770 ,1,0,0.,4.8,3.,4.8,1.,4.8,1.,4.8
1979-08-07 18:12:17.570 ,1,0,0.,4.8,2.,4.8,3.,4.8,0.,4.8
1979-08-07 18:12:22.370 ,1,0,0.,4.8,1.,4.8,0.,4.8,0.,4.8
1979-08-07 18:12:27.170 ,1,0,0.,4.8,2.,4.8,3.,4.8,1.,4.8
1979-08-07 18:12:31.970 ,1,0,0.,4.8,2.,4.8,2.,4.8,1.,4.8
1979-08-07 18:12:36.770 ,1,0,0.,4.8,2.,4.8,1.,4.8,1.,4.8
1979-08-07 18:12:41.570 ,1,0,0.,4.8,2.,4.8,1.,4.8,0.,4.8
1979-08-07 18:12:46.370 ,2,0,0.,4.8,1.,4.8,2.,4.8,1.,4.8
1979-08-07 18:12:51.170 ,2,0,0.,4.8,4.,4.8,1.,4.8,0.,4.8
1979-08-07 18:12:55.970 ,2,0,0.,4.8,4.,4.8,1.,4.8,1.,4.8
1979-08-07 18:13:00.770 ,2,0,0.,4.8,1.,4.8,3.,4.8,0.,4.8
1979-08-07 18:13:05.570 ,2,0,0.,4.8,9.,4.8,2.,4.8,1.,4.8
1979-08-07 18:13:10.370 ,2,0,0.,4.8,2.,4.8,0.,4.8,0.,4.8
1979-08-07 18:13:15.170 ,2,0,0.,4.8,4.,4.8,1.,4.8,0.,4.8
1979-08-07 18:13:19.970 ,2,0,0.,4.8,3.,4.8,1.,4.8,1.,4.8
1979-08-07 18:13:24.770 ,2,0,0.,4.8,0.,4.8,3.,4.8,1.,4.8
1979-08-07 18:13:29.570 ,2,0,0.,4.8,5.,4.8,6.,4.8,1.,4.8
1979-08-07 18:13:34.370 ,3,0,0.,4.8,5.,4.8,1.,4.8,1.,4.8
1979-08-07 18:13:39.170 ,3,0,1.,4.8,3.,4.8,4.,4.8,0.,4.8
1979-08-07 18:13:43.970 ,3,0,0.,4.8,6.,4.8,0.,4.8,0.,4.8
1979-08-07 18:13:48.770 ,3,0,0.,4.8,1.,4.8,2.,4.8,3.,4.8
1979-08-07 18:13:53.570 ,3,0,0.,4.8,2.,4.8,2.,4.8,2.,4.8
1979-08-07 18:13:58.370 ,3,0,0.,4.8,1.,4.8,2.,4.8,2.,4.8
1979-08-07 18:14:03.170 ,3,0,0.,4.8,2.,4.8,3.,4.8,0.,4.8
1979-08-07 18:14:07.970 ,3,0,0.,4.8,4.,4.8,1.,4.8,2.,4.8
1979-08-07 18:14:12.770 ,3,0,0.,4.8,3.,4.8,1.,4.8,2.,4.8
1979-08-07 18:14:17.570 ,3,0,0.,4.8,3.,4.8,3.,4.8,0.,4.8
1979-08-07 18:14:22.370 ,4,0,0.,4.8,4.,4.8,3.,4.8,1.,4.8
1979-08-07 18:14:27.170 ,4,0,0.,4.8,1.,4.8,4.,4.8,0.,4.8
1979-08-07 18:14:31.970 ,4,0,0.,4.8,3.,4.8,0.,4.8,0.,4.8
1979-08-07 18:14:36.770 ,4,0,0.,4.8,2.,4.8,0.,4.8,1.,4.8
1979-08-07 18:14:41.570 ,4,0,0.,4.8,3.,4.8,1.,4.8,0.,4.8
1979-08-07 18:14:46.370 ,4,0,0.,4.8,1.,4.8,1.,4.8,0.,4.8
1979-08-07 18:14:51.170 ,4,0,0.,4.8,2.,4.8,3.,4.8,0.,4.8
1979-08-07 18:14:55.970 ,4,0,0.,4.8,0.,4.8,1.,4.8,1.,4.8
1979-08-07 18:15:00.770 ,4,0,0.,4.8,1.,4.8,1.,4.8,2.,4.8
1979-08-07 18:15:05.570 ,4,0,0.,4.8,2.,4.8,1.,4.8,0.,4.8
1979-08-07 18:15:10.370 ,5,0,0.,4.8,1.,4.8,1.,4.8,1.,4.8
1979-08-07 18:15:15.170 ,5,0,0.,4.8,2.,4.8,0.,4.8,3.,4.8
1979-08-07 18:15:19.970 ,5,0,0.,4.8,1.,4.8,0.,4.8,1.,4.8
1979-08-07 18:15:24.770 ,5,0,0.,4.8,1.,4.8,0.,4.8,1.,4.8
1979-08-07 18:15:29.570 ,5,0,0.,4.8,3.,4.8,1.,4.8,0.,4.8
1979-08-07 18:15:34.370 ,5,0,0.,4.8,4.,4.8,1.,4.8,0.,4.8
1979-08-07 18:15:39.170 ,5,0,0.,4.8,2.,4.8,0.,4.8,0.,4.8
1979-08-07 18:15:43.970 ,5,0,0.,4.8,4.,4.8,1.,4.8,0.,4.8
1979-08-07 18:15:48.770 ,5,0,0.,4.8,3.,4.8,2.,4.8,2.,4.8
1979-08-07 18:15:53.570 ,5,0,0.,4.8,3.,4.8,1.,4.8,0.,4.8
1979-08-07 18:15:58.370 ,6,0,0.,4.8,5.,4.8,1.,4.8,1.,4.8
1979-08-07 18:16:03.170 ,6,0,0.,4.8,3.,4.8,3.,4.8,1.,4.8
1979-08-07 18:16:07.970 ,6,0,0.,4.8,4.,4.8,0.,4.8,1.,4.8
1979-08-07 18:16:12.770 ,6,0,0.,4.8,3.,4.8,0.,4.8,1.,4.8
1979-08-07 18:16:17.570 ,6,0,0.,4.8,1.,4.8,1.,4.8,0.,4.8
1979-08-07 18:16:22.370 ,6,0,0.,4.8,4.,4.8,2.,4.8,0.,4.8
1979-08-07 18:16:27.170 ,6,0,0.,4.8,5.,4.8,2.,4.8,1.,4.8
1979-08-07 18:16:31.970 ,6,0,0.,4.8,2.,4.8,2.,4.8,0.,4.8
1979-08-07 18:16:36.770 ,6,0,0.,4.8,3.,4.8,0.,4.8,0.,4.8
1979-08-07 18:16:41.570 ,6,0,0.,4.8,6.,4.8,2.,4.8,1.,4.8
1979-08-07 18:16:46.370 ,7,0,0.,4.8,4.,4.8,1.,4.8,0.,4.8
1979-08-07 18:16:51.170 ,7,0,0.,4.8,5.,4.8,2.,4.8,1.,4.8
1979-08-07 18:16:55.970 ,7,0,0.,4.8,1.,4.8,0.,4.8,0.,4.8
1979-08-07 18:17:00.770 ,7,0,0.,4.8,0.,4.8,0.,4.8,0.,4.8
1979-08-07 18:17:05.570 ,7,0,0.,4.8,0.,4.8,0.,4.8,2.,4.8
1979-08-07 18:17:10.370 ,7,0,0.,4.8,2.,4.8,0.,4.8,0.,4.8
1979-08-07 18:17:15.170 ,7,0,0.,4.8,2.,4.8,0.,4.8,0.,4.8
1979-08-07 18:17:19.970 ,7,0,0.,4.8,0.,4.8,0.,4.8,1.,4.8
1979-08-07 18:17:24.770 ,7,0,0.,4.8,0.,4.8,1.,4.8,0.,4.8
1979-08-07 18:17:29.570 ,7,0,0.,4.8,1.,4.8,0.,4.8,0.,4.8
1979-08-07 18:17:34.370 ,7,0,0.,4.8,0.,4.8,0.,4.8,1.,4.8
1979-08-07 18:17:39.170 ,7,0,0.,4.8,0.,4.8,0.,4.8,0.,4.8
1979-08-07 18:17:43.970 ,7,0,0.,4.8,1.,4.8,0.,4.8,0.,4.8
1979-08-07 18:17:48.770 ,7,0,0.,4.8,0.,4.8,0.,4.8,0.,4.8
1979-08-07 18:17:53.570 ,7,0,0.,4.8,0.,4.8,0.,4.8,0.,4.8
1979-08-07 18:17:58.370 ,7,0,0.,4.8,1.,4.8,0.,4.8,0.,4.8
1979-08-07 18:18:03.170 ,7,0,0.,4.8,1.,4.8,0.,4.8,0.,4.8
1979-08-07 18:18:07.970 ,7,0,0.,4.8,0.,4.8,0.,4.8,0.,4.8
1979-08-07 18:18:12.770 ,7,0,0.,4.8,0.,4.8,1.,4.8,0.,4.8
1979-08-07 18:18:17.570 ,7,0,0.,4.8,1.,4.8,0.,4.8,0.,4.8
1979-08-07 18:18:22.370 ,6,0,0.,4.8,1.,4.8,0.,4.8,0.,4.8
1979-08-07 18:18:27.170 ,6,0,0.,4.8,2.,4.8,0.,4.8,0.,4.8
1979-08-07 18:18:31.970 ,6,0,0.,4.8,2.,4.8,1.,4.8,0.,4.8
1979-08-07 18:18:36.770 ,6,0,0.,4.8,1.,4.8,2.,4.8,0.,4.8
1979-08-07 18:18:41.570 ,6,0,0.,4.8,2.,4.8,0.,4.8,0.,4.8
1979-08-07 18:18:46.370 ,6,0,0.,4.8,6.,4.8,2.,4.8,0.,4.8
1979-08-07 18:18:51.170 ,6,0,0.,4.8,1.,4.8,1.,4.8,0.,4.8
1979-08-07 18:18:55.970 ,6,0,0.,4.8,0.,4.8,0.,4.8,2.,4.8
1979-08-07 18:19:00.770 ,6,0,0.,4.8,2.,4.8,0.,4.8,0.,4.8
1979-08-07 18:19:05.570 ,6,0,0.,4.8,0.,4.8,0.,4.8,1.,4.8
1979-08-07 18:19:10.370 ,5,0,0.,4.8,5.,4.8,1.,4.8,0.,4.8
1979-08-07 18:19:15.170 ,5,0,0.,4.8,5.,4.8,1.,4.8,0.,4.8
1979-08-07 18:19:19.970 ,5,0,0.,4.8,0.,4.8,1.,4.8,1.,4.8
1979-08-07 18:19:24.770 ,5,0,0.,4.8,3.,4.8,0.,4.8,0.,4.8
1979-08-07 18:19:29.570 ,5,0,0.,4.8,1.,4.8,0.,4.8,0.,4.8
1979-08-07 18:19:34.370 ,0,0,0.,4.8,0.,4.8,1.,4.8,0.,4.8
1979-08-07 18:19:39.170 ,0,0,0.,4.8,1.,4.8,1.,4.8,0.,4.8
1979-08-07 18:19:43.970 ,0,0,0.,4.8,1.,4.8,0.,4.8,1.,4.8
1979-08-07 18:19:48.770 ,0,0,0.,4.8,1.,4.8,1.,4.8,0.,4.8
1979-08-07 18:19:53.570 ,0,0,0.,4.8,2.,4.8,1.,4.8,0.,4.8
1979-08-07 18:20:46.370 ,0,0,0.,4.8,0.,4.8,1.,4.8,0.,4.8
1979-08-07 18:20:51.170 ,0,0,0.,4.8,4.,4.8,2.,4.8,0.,4.8
1979-08-07 18:20:55.970 ,0,0,0.,4.8,3.,4.8,2.,4.8,0.,4.8
1979-08-07 18:21:00.770 ,0,0,0.,4.8,4.,4.8,0.,4.8,3.,4.8
1979-08-07 18:21:05.570 ,0,0,0.,4.8,2.,4.8,0.,4.8,0.,4.8
1979-08-07 18:21:10.370 ,0,0,0.,4.8,3.,4.8,1.,4.8,1.,4.8
1979-08-07 18:21:15.170 ,0,0,0.,4.8,5.,4.8,4.,4.8,0.,4.8
1979-08-07 18:21:19.970 ,0,0,0.,4.8,3.,4.8,1.,4.8,2.,4.8
1979-08-07 18:21:24.770 ,0,0,0.,4.8,4.,4.8,1.,4.8,1.,4.8
1979-08-07 18:21:29.570 ,0,0,0.,4.8,4.,4.8,1.,4.8,0.,4.8
1979-08-07 18:21:34.370 ,2,0,0.,4.8,1.,4.8,2.,4.8,1.,4.8
1979-08-07 18:21:39.170 ,2,0,0.,4.8,4.,4.8,1.,4.8,0.,4.8
1979-08-07 18:21:43.970 ,2,0,0.,4.8,3.,4.8,0.,4.8,0.,4.8
1979-08-07 18:21:48.770 ,2,0,0.,4.8,4.,4.8,1.,4.8,0.,4.8
1979-08-07 18:21:53.570 ,2,0,0.,4.8,4.,4.8,0.,4.8,0.,4.8
1979-08-07 18:21:58.370 ,2,0,0.,4.8,4.,4.8,0.,4.8,0.,4.8
1979-08-07 18:22:03.170 ,2,0,0.,4.8,8.,4.8,1.,4.8,1.,4.8
1979-08-07 18:22:07.970 ,2,0,0.,4.8,3.,4.8,2.,4.8,1.,4.8
1979-08-07 18:22:12.770 ,2,0,0.,4.8,3.,4.8,2.,4.8,0.,4.8
1979-08-07 18:22:17.570 ,2,0,0.,4.8,3.,4.8,0.,4.8,1.,4.8
1979-08-07 18:23:10.370 ,0,0,0.,4.8,3.,4.8,0.,4.8,0.,4.8
1979-08-07 18:23:15.170 ,0,0,0.,4.8,1.,4.8,0.,4.8,0.,4.8
1979-08-07 18:23:19.970 ,0,0,0.,4.8,6.,4.8,0.,4.8,0.,4.8
1979-08-07 18:23:24.770 ,0,0,0.,4.8,0.,4.8,1.,4.8,0.,4.8
1979-08-07 18:23:29.570 ,0,0,0.,4.8,2.,4.8,0.,4.8,0.,4.8
1979-08-07 18:23:34.370 ,0,0,0.,4.8,3.,4.8,0.,4.8,0.,4.8
1979-08-07 18:23:39.170 ,0,0,0.,4.8,5.,4.8,0.,4.8,0.,4.8
1979-08-07 18:23:43.970 ,0,0,0.,4.8,3.,4.8,3.,4.8,0.,4.8
1979-08-07 18:23:48.770 ,0,0,0.,4.8,1.,4.8,2.,4.8,0.,4.8
1979-08-07 18:23:53.570 ,0,0,0.,4.8,1.,4.8,0.,4.8,1.,4.8
1979-08-07 18:23:58.370 ,0,0,0.,4.8,3.,4.8,1.,4.8,0.,4.8
1979-08-07 18:24:03.170 ,0,0,0.,4.8,1.,4.8,0.,4.8,0.,4.8
1979-08-07 18:24:07.970 ,0,0,0.,4.8,4.,4.8,0.,4.8,0.,4.8
1979-08-07 18:24:12.770 ,0,0,0.,4.8,2.,4.8,2.,4.8,0.,4.8
1979-08-07 18:24:17.570 ,0,0,0.,4.8,2.,4.8,1.,4.8,0.,4.8
1979-08-07 18:24:22.370 ,0,0,0.,4.8,2.,4.8,2.,4.8,0.,4.8
1979-08-07 18:24:27.170 ,0,0,0.,4.8,3.,4.8,1.,4.8,1.,4.8
1979-08-07 18:24:31.970 ,0,0,0.,4.8,0.,4.8,2.,4.8,1.,4.8
1979-08-07 18:24:36.770 ,0,0,0.,4.8,3.,4.8,0.,4.8,0.,4.8
1979-08-07 18:24:41.570 ,0,0,0.,4.8,0.,4.8,1.,4.8,1.,4.8
1979-08-07 18:30:22.370 ,0,0,0.,4.8,1.,4.8,0.,4.8,0.,4.8
1979-08-07 18:30:27.170 ,0,0,0.,4.8,1.,4.8,0.,4.8,0.,4.8
1979-08-07 18:30:31.970 ,0,0,0.,4.8,0.,4.8,0.,4.8,0.,4.8
1979-08-07 18:30:36.770 ,0,0,0.,4.8,0.,4.8,0.,4.8,0.,4.8
1979-08-07 18:30:41.570 ,0,0,0.,4.8,0.,4.8,0.,4.8,0.,4.8
1979-08-07 18:30:46.370 ,0,0,0.,4.8,0.,4.8,0.,4.8,0.,4.8
1979-08-07 18:30:51.170 ,0,0,0.,4.8,2.,4.8,0.,4.8,1.,4.8
1979-08-07 18:30:55.970 ,0,0,0.,4.8,0.,4.8,0.,4.8,0.,4.8
1979-08-07 18:31:00.770 ,0,0,0.,4.8,1.,4.8,0.,4.8,0.,4.8
1979-08-07 18:31:05.570 ,0,0,0.,4.8,0.,4.8,0.,4.8,0.,4.8
1979-08-07 18:31:58.370 ,0,0,0.,4.8,3.,4.8,2.,4.8,1.,4.8
1979-08-07 18:32:03.170 ,0,0,0.,4.8,5.,4.8,0.,4.8,0.,4.8
1979-08-07 18:32:07.970 ,0,0,0.,4.8,1.,4.8,1.,4.8,0.,4.8
1979-08-07 18:32:12.770 ,0,0,0.,4.8,0.,4.8,0.,4.8,0.,4.8
1979-08-07 18:32:17.570 ,0,0,0.,4.8,0.,4.8,0.,4.8,0.,4.8
1979-08-07 18:32:22.370 ,0,0,0.,4.8,2.,4.8,2.,4.8,1.,4.8
1979-08-07 18:32:27.170 ,0,0,0.,4.8,1.,4.8,0.,4.8,0.,4.8
1979-08-07 18:32:31.970 ,0,0,0.,4.8,2.,4.8,0.,4.8,0.,4.8
1979-08-07 18:32:36.770 ,0,0,0.,4.8,2.,4.8,2.,4.8,0.,4.8
1979-08-07 18:32:41.570 ,0,0,0.,4.8,0.,4.8,1.,4.8,0.,4.8
1979-08-07 18:34:22.370 ,0,0,0.,4.8,3.,4.8,2.,4.8,1.,4.8
1979-08-07 18:34:27.170 ,0,0,0.,4.8,3.,4.8,0.,4.8,2.,4.8
1979-08-07 18:34:31.970 ,0,0,0.,4.8,3.,4.8,0.,4.8,2.,4.8
1979-08-07 18:34:36.770 ,0,0,0.,4.8,3.,4.8,2.,4.8,2.,4.8
1979-08-07 18:34:41.570 ,0,0,0.,4.8,5.,4.8,2.,4.8,0.,4.8
1979-08-07 18:34:46.370 ,0,0,0.,4.8,3.,4.8,0.,4.8,0.,4.8
1979-08-07 18:34:51.170 ,0,0,0.,4.8,6.,4.8,1.,4.8,2.,4.8
1979-08-07 18:34:55.970 ,0,0,0.,4.8,3.,4.8,1.,4.8,0.,4.8
1979-08-07 18:35:00.770 ,0,0,0.,4.8,6.,4.8,1.,4.8,1.,4.8
1979-08-07 18:35:05.570 ,0,0,0.,4.8,5.,4.8,1.,4.8,3.,4.8
1979-08-07 18:35:10.370 ,1,0,0.,4.8,7.,4.8,2.,4.8,1.,4.8
1979-08-07 18:35:15.170 ,1,0,0.,4.8,3.,4.8,1.,4.8,2.,4.8
1979-08-07 18:35:19.970 ,1,0,0.,4.8,1.,4.8,1.,4.8,0.,4.8
1979-08-07 18:35:24.770 ,1,0,0.,4.8,5.,4.8,2.,4.8,0.,4.8
1979-08-07 18:35:29.570 ,1,0,0.,4.8,1.,4.8,1.,4.8,0.,4.8
1979-08-07 18:35:34.370 ,1,0,0.,4.8,4.,4.8,2.,4.8,0.,4.8
1979-08-07 18:35:39.170 ,1,0,0.,4.8,3.,4.8,2.,4.8,0.,4.8
1979-08-07 18:35:43.970 ,1,0,0.,4.8,3.,4.8,1.,4.8,0.,4.8
1979-08-07 18:35:48.770 ,1,0,0.,4.8,2.,4.8,1.,4.8,0.,4.8
1979-08-07 18:35:53.570 ,1,0,0.,4.8,1.,4.8,1.,4.8,2.,4.8
1979-08-07 18:36:46.370 ,0,0,0.,4.8,1.,4.8,1.,4.8,1.,4.8
1979-08-07 18:36:51.170 ,0,0,0.,4.8,4.,4.8,2.,4.8,1.,4.8
1979-08-07 18:36:55.970 ,0,0,0.,4.8,1.,4.8,2.,4.8,0.,4.8
1979-08-07 18:37:00.770 ,0,0,0.,4.8,1.,4.8,2.,4.8,0.,4.8
1979-08-07 18:37:05.570 ,0,0,0.,4.8,0.,4.8,1.,4.8,0.,4.8
1979-08-07 18:37:10.370 ,0,0,0.,4.8,2.,4.8,0.,4.8,1.,4.8
1979-08-07 18:37:15.170 ,0,0,0.,4.8,3.,4.8,2.,4.8,1.,4.8
1979-08-07 18:37:19.970 ,0,0,0.,4.8,3.,4.8,1.,4.8,0.,4.8
1979-08-07 18:37:24.770 ,0,0,0.,4.8,4.,4.8,0.,4.8,0.,4.8
1979-08-07 18:37:29.570 ,0,0,0.,4.8,2.,4.8,0.,4.8,0.,4.8
1979-08-07 18:38:22.370 ,0,0,0.,4.8,0.,4.8,0.,4.8,0.,4.8
1979-08-07 18:38:27.170 ,0,0,0.,4.8,1.,4.8,1.,4.8,0.,4.8
1979-08-07 18:38:31.970 ,0,0,0.,4.8,5.,4.8,0.,4.8,0.,4.8
1979-08-07 18:38:36.770 ,0,0,0.,4.8,3.,4.8,3.,4.8,1.,4.8
1979-08-07 18:38:41.570 ,0,0,0.,4.8,5.,4.8,2.,4.8,1.,4.8
1979-08-07 18:38:46.370 ,0,0,0.,4.8,4.,4.8,1.,4.8,0.,4.8
1979-08-07 18:38:51.170 ,0,0,0.,4.8,3.,4.8,1.,4.8,0.,4.8
1979-08-07 18:38:55.970 ,0,0,0.,4.8,4.,4.8,0.,4.8,0.,4.8
1979-08-07 18:39:00.770 ,0,0,0.,4.8,6.,4.8,2.,4.8,0.,4.8
1979-08-07 18:39:05.570 ,0,0,0.,4.8,3.,4.8,0.,4.8,1.,4.8
1979-08-07 18:38:46.370 ,0,0,0.,4.8,4.,4.8,1.,4.8,0.,4.8
1979-08-07 18:38:51.170 ,0,0,0.,4.8,3.,4.8,1.,4.8,0.,4.8
1979-08-07 18:38:55.970 ,0,0,0.,4.8,4.,4.8,0.,4.8,0.,4.8
1979-08-07 18:39:00.770 ,0,0,0.,4.8,6.,4.8,2.,4.8,0.,4.8
1979-08-07 18:39:05.570 ,0,0,0.,4.8,3.,4.8,0.,4.8,1.,4.8
1979-08-07 18:46:22.370 ,0,0,0.,4.8,3.,4.8,0.,4.8,0.,4.8
1979-08-07 18:46:27.170 ,0,0,0.,4.8,6.,4.8,1.,4.8,0.,4.8
1979-08-07 18:46:31.970 ,0,0,0.,4.8,1.,4.8,0.,4.8,0.,4.8
1979-08-07 18:46:36.770 ,0,0,0.,4.8,7.,4.8,1.,4.8,0.,4.8
1979-08-07 18:46:41.570 ,0,0,0.,4.8,2.,4.8,1.,4.8,0.,4.8
1979-08-07 18:46:46.370 ,0,1,0.,4.8,6.,4.8,1.,4.8,0.,4.8
1979-08-07 18:46:51.170 ,0,1,0.,4.8,4.,4.8,2.,4.8,1.,4.8
1979-08-07 18:46:55.970 ,0,1,0.,4.8,0.,4.8,0.,4.8,0.,4.8
1979-08-07 18:47:00.770 ,0,1,0.,4.8,2.,4.8,0.,4.8,1.,4.8
1979-08-07 18:47:05.570 ,0,1,0.,4.8,3.,4.8,0.,4.8,0.,4.8
1979-08-07 18:47:10.370 ,4,1,0.,4.8,1.,4.8,1.,4.8,0.,4.8
1979-08-07 18:47:15.170 ,4,1,0.,4.8,0.,4.8,3.,4.8,0.,4.8
1979-08-07 18:47:19.970 ,4,1,0.,4.8,0.,4.8,1.,4.8,1.,4.8
1979-08-07 18:47:24.770 ,4,1,0.,4.8,8.,4.8,0.,4.8,2.,4.8
1979-08-07 18:47:29.570 ,4,1,0.,4.8,2.,4.8,1.,4.8,0.,4.8
1979-08-07 18:47:34.370 ,7,1,0.,4.8,2.,4.8,0.,4.8,3.,4.8
1979-08-07 18:47:39.170 ,7,1,0.,4.8,1.,4.8,0.,4.8,0.,4.8
1979-08-07 18:47:43.970 ,7,1,0.,4.8,6.,4.8,0.,4.8,0.,4.8
1979-08-07 18:47:48.770 ,7,1,0.,4.8,1.,4.8,0.,4.8,0.,4.8
1979-08-07 18:47:53.570 ,7,1,0.,4.8,1.,4.8,0.,4.8,0.,4.8
1979-08-07 18:51:10.370 ,0,0,0.,4.8,0.,4.8,0.,4.8,1.,4.8
1979-08-07 18:51:15.170 ,0,0,0.,4.8,0.,4.8,1.,4.8,1.,4.8
1979-08-07 18:51:19.970 ,0,0,0.,4.8,2.,4.8,0.,4.8,0.,4.8
1979-08-07 18:51:24.770 ,0,0,0.,4.8,5.,4.8,0.,4.8,0.,4.8
1979-08-07 18:51:29.570 ,0,0,0.,4.8,4.,4.8,1.,4.8,1.,4.8
1979-08-07 18:51:34.370 ,0,1,0.,4.8,6.,4.8,0.,4.8,0.,4.8
1979-08-07 18:51:39.170 ,0,1,0.,4.8,3.,4.8,3.,4.8,2.,4.8
1979-08-07 18:51:43.970 ,0,1,0.,4.8,3.,4.8,0.,4.8,0.,4.8
1979-08-07 18:51:48.770 ,0,1,0.,4.8,2.,4.8,3.,4.8,0.,4.8
1979-08-07 18:51:53.570 ,0,1,0.,4.8,7.,4.8,2.,4.8,0.,4.8
1979-08-07 18:51:58.370 ,4,1,0.,4.8,3.,4.8,0.,4.8,1.,4.8
1979-08-07 18:52:03.170 ,4,1,0.,4.8,3.,4.8,2.,4.8,1.,4.8
1979-08-07 18:52:07.970 ,4,1,0.,4.8,4.,4.8,2.,4.8,0.,4.8
1979-08-07 18:52:12.770 ,4,1,0.,4.8,4.,4.8,2.,4.8,0.,4.8
1979-08-07 18:52:17.570 ,4,1,0.,4.8,6.,4.8,1.,4.8,1.,4.8
1979-08-07 18:52:22.370 ,7,1,0.,4.8,0.,4.8,0.,4.8,0.,4.8
1979-08-07 18:52:27.170 ,7,1,0.,4.8,1.,4.8,0.,4.8,1.,4.8
1979-08-07 18:52:31.970 ,7,1,0.,4.8,3.,4.8,1.,4.8,0.,4.8
1979-08-07 18:52:36.770 ,7,1,0.,4.8,2.,4.8,1.,4.8,0.,4.8
1979-08-07 18:52:41.570 ,7,1,0.,4.8,3.,4.8,0.,4.8,0.,4.8
1979-08-07 18:52:46.370 ,3,1,0.,4.8,0.,4.8,0.,4.8,0.,4.8
1979-08-07 18:52:51.170 ,3,1,0.,4.8,5.,4.8,2.,4.8,2.,4.8
1979-08-07 18:52:55.970 ,3,1,0.,4.8,5.,4.8,1.,4.8,0.,4.8
1979-08-07 18:53:00.770 ,3,1,0.,4.8,3.,4.8,0.,4.8,1.,4.8
1979-08-07 18:53:05.570 ,3,1,0.,4.8,4.,4.8,3.,4.8,0.,4.8
1979-08-07 18:53:10.370 ,0,1,0.,4.8,3.,4.8,2.,4.8,1.,4.8
1979-08-07 18:53:15.170 ,0,1,0.,4.8,1.,4.8,1.,4.8,1.,4.8
1979-08-07 18:53:19.970 ,0,1,0.,4.8,2.,4.8,0.,4.8,0.,4.8
1979-08-07 18:53:24.770 ,0,1,0.,4.8,0.,4.8,1.,4.8,0.,4.8
1979-08-07 18:53:29.570 ,0,1,0.,4.8,1.,4.8,0.,4.8,0.,4.8
1979-08-07 18:53:34.370 ,0,0,0.,4.8,3.,4.8,2.,4.8,0.,4.8
1979-08-07 18:53:39.170 ,0,0,0.,4.8,3.,4.8,1.,4.8,0.,4.8
1979-08-07 18:53:43.970 ,0,0,0.,4.8,2.,4.8,1.,4.8,0.,4.8
1979-08-07 18:53:48.770 ,0,0,0.,4.8,5.,4.8,1.,4.8,0.,4.8
1979-08-07 18:53:53.570 ,0,0,0.,4.8,2.,4.8,2.,4.8,1.,4.8
1979-08-07 18:53:58.370 ,0,0,0.,4.8,3.,4.8,1.,4.8,0.,4.8
1979-08-07 18:54:03.170 ,0,0,0.,4.8,0.,4.8,1.,4.8,0.,4.8
1979-08-07 18:54:07.970 ,0,0,0.,4.8,4.,4.8,1.,4.8,0.,4.8
1979-08-07 18:54:12.770 ,0,0,0.,4.8,1.,4.8,1.,4.8,0.,4.8
1979-08-07 18:54:17.570 ,0,0,0.,4.8,0.,4.8,0.,4.8,0.,4.8
1979-08-07 18:54:22.370 ,5,0,0.,4.8,0.,4.8,3.,4.8,0.,4.8
1979-08-07 18:54:27.170 ,5,0,0.,4.8,1.,4.8,1.,4.8,0.,4.8